FW2254 Weather Reports


Display with metric or nautical units.
time (UTC)temp
F
wind
direction
speed
MPH
gust
MPH
rain 1hr
in
rain 24hr
in
rain mn
in
humidity
%
barometer
mb
20260901043022 84 14 0.0 1.0 0.00 0.00 0.00 67 1012.4
20260901041506 84 14 0.0 1.0 0.00 0.00 0.00 67 1012.3
20260901040046 85 14 0.0 0.0 0.00 0.00 0.00 66 1012.2
20260901034535 86 14 0.0 0.0 0.00 0.00 0.00 64 1012.3
20260901033035 86 14 0.0 0.0 0.00 0.00 0.00 63 1012.2
20260901031532 87 14 0.0 1.0 0.00 0.00 0.00 62 1012.2
20260901030034 87 14 0.0 1.0 0.00 0.00 0.00 62 1012.1
20260901024534 87 14 0.0 1.0 0.00 0.00 0.00 61 1011.9
20260901023029 88 14 0.0 1.0 0.00 0.00 0.00 60 1011.8
20260901021530 88 14 0.0 1.0 0.00 0.00 0.00 60 1011.7
20260901020034 88 14 0.0 2.0 0.00 0.00 0.00 59 1011.6
20260901014526 88 14 0.0 0.0 0.00 0.00 0.00 59 1011.3
20260901013025 89 14 0.0 0.0 0.00 0.00 0.00 58 1011.3
20260901011528 90 14 0.0 0.0 0.00 0.00 0.00 56 1011.1
20260901010024 91 14 0.0 1.0 0.00 0.00 0.00 53 1011.0
20260901004522 93 14 0.0 1.0 0.00 0.00 0.00 50 1011.1
20260901003023 94 14 0.0 2.0 0.00 0.00 0.00 48 1011.0
20260901001525 95 14 0.0 2.0 0.00 0.00 0.00 48 1010.9
20260901000021 95 14 0.0 2.0 0.00 0.00 0.00 47 1010.7
20260831234520 95 14 0.0 2.0 0.00 0.00 0.00 47 1010.7
20260831233015 94 14 0.0 0.0 0.00 0.00 0.00 48 1010.7
20260831231524 95 14 0.0 1.0 0.00 0.00 0.00 46 1010.7
20260831230014 96 14 0.0 1.0 0.00 0.00 0.00 45 1010.8
20260831224540 97 14 0.0 3.0 0.00 0.00 0.00 44 1010.9
20260831223011 98 14 0.0 2.0 0.00 0.00 0.00 42 1010.9
20260831221509 98 14 0.0 2.0 0.00 0.00 0.00 42 1011.1
20260831220009 97 14 0.0 2.0 0.00 0.00 0.00 44 1011.0
20260831214507 99 14 1.0 4.0 0.00 0.00 0.00 42 1011.1
20260831213004 98 14 0.0 2.0 0.00 0.00 0.00 42 1011.2
20260831211503 97 14 0.0 2.0 0.00 0.00 0.00 44 1011.4
20260831210003 96 14 0.0 2.0 0.00 0.00 0.00 44 1011.6
20260831204501 97 14 0.0 2.0 0.00 0.00 0.00 45 1011.8
20260831203037 98 14 0.0 2.0 0.00 0.00 0.00 44 1012.0
20260831201532 98 14 1.0 4.0 0.00 0.00 0.00 43 1012.4
20260831200027 99 14 1.0 2.0 0.00 0.00 0.00 42 1012.5
20260831194526 100 14 0.0 3.0 0.00 0.00 0.00 43 1012.7
20260831193029 101 14 1.0 4.0 0.00 0.00 0.00 41 1012.7
20260831191536 101 14 0.0 3.0 0.00 0.00 0.00 41 1012.7
20260831190019 99 14 1.0 4.0 0.00 0.00 0.00 43 1013.0
20260831184517 95 14 0.0 1.0 0.00 0.00 0.00 49 1013.3
20260831183026 97 14 0.0 3.0 0.00 0.00 0.00 48 1013.5
20260831181514 97 14 1.0 5.0 0.00 0.00 0.00 47 1013.6
20260831180013 98 14 1.0 4.0 0.00 0.00 0.00 45 1013.7
20260831174511 97 14 1.0 4.0 0.00 0.00 0.00 49 1013.8
20260831173044 98 14 0.0 3.0 0.00 0.00 0.00 48 1014.2
20260831171537 97 14 1.0 3.0 0.00 0.00 0.00 49 1014.6
20260831170034 99 14 0.0 3.0 0.00 0.00 0.00 48 1014.8
20260831164531 96 14 1.0 3.0 0.00 0.00 0.00 50 1014.9
20260831163031 93 14 1.0 3.0 0.00 0.00 0.00 53 1015.2
20260831161525 92 14 0.0 2.0 0.00 0.00 0.00 57 1015.2
20260831160026 91 14 1.0 2.0 0.00 0.00 0.00 60 1015.1
20260831154514 89 14 0.0 4.0 0.00 0.00 0.00 62 1015.1
20260831153011 88 14 0.0 2.0 0.00 0.00 0.00 66 1015.0
20260831151507 87 14 0.0 2.0 0.00 0.00 0.00 69 1015.0
20260831150008 86 14 1.0 3.0 0.00 0.00 0.00 71 1015.1
20260831144600 84 14 0.0 3.0 0.00 0.00 0.00 73 1015.0
20260831143108 83 14 0.0 3.0 0.00 0.00 0.00 75 1014.9
20260831141557 83 14 0.0 2.0 0.00 0.00 0.00 77 1014.7
20260831140155 82 14 0.0 2.0 0.00 0.00 0.00 77 1014.6
20260831134558 81 14 0.0 1.0 0.00 0.00 0.00 77 1014.7
20260831133051 80 14 0.0 3.0 0.00 0.00 0.00 79 1014.5
20260831131605 78 14 0.0 1.0 0.00 0.00 0.00 81 1014.3
20260831130104 76 14 0.0 0.0 0.00 0.00 0.00 83 1014.1
20260831124531 76 14 0.0 0.0 0.00 0.00 0.00 83 1013.9
20260831123014 75 27 0.0 0.0 0.00 0.00 0.00 84 1013.5
20260831121511 75 27 0.0 0.0 0.00 0.00 0.00 82 1013.4
20260831120013 75 27 0.0 0.0 0.00 0.00 0.00 82 1013.2
20260831114508 75 26 0.0 0.0 0.00 0.00 0.00 81 1013.2
20260831113006 76 27 0.0 0.0 0.00 0.00 0.00 80 1013.1
20260831111505 76 27 0.0 0.0 0.00 0.00 0.00 80 1013.0
20260831110001 76 27 0.0 0.0 0.00 0.00 0.00 80 1012.9
20260831104600 76 27 0.0 0.0 0.00 0.00 0.00 79 1012.8
20260831103102 76 27 0.0 0.0 0.00 0.00 0.00 78 1012.9
20260831101600 77 27 0.0 0.0 0.00 0.00 0.00 77 1012.9
20260831100104 77 27 0.0 0.0 0.00 0.00 0.00 77 1012.8
20260831094601 78 27 0.0 0.0 0.00 0.00 0.00 76 1012.7
20260831093051 78 27 0.0 0.0 0.00 0.00 0.00 75 1012.7
20260831091544 78 27 0.0 0.0 0.00 0.00 0.00 74 1012.6
20260831090045 79 27 0.0 0.0 0.00 0.00 0.00 73 1012.7
20260831084546 79 27 0.0 0.0 0.00 0.00 0.00 73 1012.6
20260831083040 79 27 0.0 0.0 0.00 0.00 0.00 72 1012.6
20260831081538 80 27 0.0 1.0 0.00 0.00 0.00 71 1012.4
20260831080032 80 27 0.0 1.0 0.00 0.00 0.00 70 1012.5
20260831074531 81 27 0.0 1.0 0.00 0.00 0.00 69 1012.4
20260831073029 82 27 0.0 1.0 0.00 0.00 0.00 67 1012.3
20260831071525 82 27 0.0 2.0 0.00 0.00 0.00 67 1012.4
20260831070024 82 27 0.0 3.0 0.00 0.00 0.00 66 1012.3
20260831064522 82 27 0.0 2.0 0.00 0.00 0.00 66 1012.5
20260831063023 83 27 0.0 2.0 0.00 0.00 0.00 65 1012.6
20260831061514 83 27 0.0 2.0 0.00 0.00 0.00 65 1012.4
20260831060012 83 27 0.0 1.0 0.00 0.00 0.00 65 1012.3
20260831054509 84 27 0.0 1.0 0.00 0.00 0.00 64 1012.3
20260831053032 83 27 0.0 4.0 0.00 0.00 0.00 64 1012.1
20260831051507 83 26 0.0 2.0 0.00 0.00 0.00 65 1012.0
20260831050008 83 26 0.0 1.0 0.00 0.00 0.00 64 1011.9
20260831044532 84 26 0.0 2.0 0.00 0.00 0.00 63 1011.9